TimePDT,TemperatureF,Dew PointF,Humidity,Sea Level PressureIn,VisibilityMPH,Wind Direction,Wind SpeedMPH,Gust SpeedMPH,PrecipitationIn,Events,Conditions,WindDirDegrees,DateUTC
12:53 AM,55.0,48.0,77,29.83,10.0,Calm,Calm,-,N/A,,Clear,0,2011-10-06 07:53:00
1:53 AM,51.1,48.0,89,29.84,10.0,Calm,Calm,-,N/A,,Clear,0,2011-10-06 08:53:00
2:53 AM,50.0,46.9,89,29.84,10.0,Calm,Calm,-,N/A,,Clear,0,2011-10-06 09:53:00
3:53 AM,50.0,46.0,86,29.84,10.0,Calm,Calm,-,N/A,,Clear,0,2011-10-06 10:53:00
4:53 AM,50.0,46.9,89,29.84,10.0,NNE,3.5,-,N/A,,Scattered Clouds,20,2011-10-06 11:53:00
5:53 AM,48.9,46.0,90,29.86,10.0,Calm,Calm,-,N/A,,Clear,0,2011-10-06 12:53:00
6:53 AM,48.0,45.0,89,29.87,10.0,SSW,3.5,-,N/A,,Clear,200,2011-10-06 13:53:00
7:53 AM,51.1,46.9,86,29.88,10.0,Calm,Calm,-,N/A,,Partly Cloudy,0,2011-10-06 14:53:00
8:53 AM,55.0,48.0,77,29.89,10.0,Calm,Calm,-,N/A,,Partly Cloudy,0,2011-10-06 15:53:00
9:53 AM,60.1,48.0,64,29.90,10.0,East,5.8,-,N/A,,Scattered Clouds,90,2011-10-06 16:53:00
10:53 AM,61.0,44.1,54,29.90,10.0,SSW,4.6,-,N/A,,Scattered Clouds,210,2011-10-06 17:53:00
11:53 AM,63.0,41.0,45,29.89,10.0,Calm,Calm,-,N/A,,Scattered Clouds,0,2011-10-06 18:53:00
12:53 PM,64.9,41.0,42,29.88,10.0,Calm,Calm,-,N/A,,Mostly Cloudy,0,2011-10-06 19:53:00
1:53 PM,64.9,42.1,43,29.86,10.0,Calm,Calm,-,N/A,,Mostly Cloudy,0,2011-10-06 20:53:00
2:53 PM,66.9,39.9,37,29.85,10.0,SSW,6.9,-,N/A,,Mostly Cloudy,210,2011-10-06 21:53:00
3:53 PM,68.0,39.9,36,29.85,10.0,West,5.8,-,N/A,,Mostly Cloudy,260,2011-10-06 22:53:00
4:53 PM,64.9,42.1,43,29.85,10.0,West,11.5,18.4,N/A,,Clear,280,2011-10-06 23:53:00
5:53 PM,63.0,42.1,46,29.86,10.0,West,9.2,16.1,N/A,,Clear,280,2011-10-07 00:53:00
6:53 PM,60.1,42.1,51,29.88,10.0,West,11.5,17.3,N/A,,Mostly Cloudy,280,2011-10-07 01:53:00
7:53 PM,59.0,43.0,55,29.89,10.0,WNW,6.9,-,N/A,,Scattered Clouds,290,2011-10-07 02:53:00
8:53 PM,57.9,45.0,62,29.91,10.0,Calm,Calm,-,N/A,,Partly Cloudy,0,2011-10-07 03:53:00
9:53 PM,55.9,45.0,67,29.92,10.0,East,3.5,-,N/A,,Scattered Clouds,100,2011-10-07 04:53:00
10:53 PM,55.9,46.0,69,29.94,10.0,Calm,Calm,-,N/A,,Clear,0,2011-10-07 05:53:00
11:53 PM,55.0,46.0,72,29.95,10.0,Calm,Calm,-,N/A,,Scattered Clouds,0,2011-10-07 06:53:00